National Weather Service Hourly Weather Roundup
NOAA NWS Hourly Roundups by Site
NOAA NWS Hourly Roundups by Site
Regional Weather Roundup for Sacramento, CA

To Select Another Site Choose from List

Select Site:  

000
ASUS46 KLOX 192104
RWRCA

SOUTHERN CALIFORNIA WEATHER ROUNDUP
NATIONAL WEATHER SERVICE OXNARD CALIFORNIA
200 PM PDT SAT SEP 19 2020

NOTE: "FAIR" INDICATES FEW OR NO CLOUDS BELOW 12,000 FEET WITH NO
SIGNIFICANT WEATHER AND/OR OBSTRUCTIONS TO VISIBILITY.

  -  STATIONS PRECEEDED BY AN ASTERISK (*) ARE NOT NWS OR FAA
     STATIONS AND ARE NOT SUBJECT TO NWS AND FAA QUALITY CONTROL.

CAZ041-042-087-192200-
LA AND ORANGE COUNTY COASTAL AREAS


CITY           SKY/WX    TMP DP  RH WIND       PRES   REMARKS
L.A. DOWNTOWN  SUNNY     82  59  45 CALM      29.83F
L.A. AIRPORT   SUNNY     75  61  61 W13       29.85F
LONG BEACH     SUNNY     85  58  39 S6        29.83F

CITY           SKY/WX    TMP DP  RH WIND       PRES   REMARKS
AVALON           N/A     72 N/A N/A MISG        N/A
FULLERTON      MOSUNNY   87  55  33 S8        29.82F
HAWTHORNE      SUNNY     76  59  55 SW13      29.84F
*LEO CARRILLO    N/A     73  59  61 W12         N/A
*LOS ALAMITOS  MOSUNNY   84  57  39 S6        29.83F
*REDONDO BEACH   N/A     77  63  63 CALM      29.84F
SANTA ANA      MOSUNNY   81  58  45 SW7       29.84F
TORRANCE       SUNNY     79  63  57 W15       29.83F
*UCLA            N/A     77  55  47 S3        29.82S

$$

CAZ547-548-048-192200-
LA COUNTY VALLEYS AND INLAND EMPIRE


CITY           SKY/WX    TMP DP  RH WIND       PRES   REMARKS
BURBANK        SUNNY     88  56  33 S12       29.83F
VAN NUYS       SUNNY     93  42  17 SE10      29.83F

CITY           SKY/WX    TMP DP  RH WIND       PRES   REMARKS
CORONA AIRPORT CLEAR     93  56  28 W13       29.81F HX  91
*CHATSWORTH      N/A     93  47  20 S3        29.82F
CHINO          SUNNY     99  45  15 W10       29.83F HX  95
*CLAREMONT       N/A     92  52  25 SW7         N/A
MARCH AFB      SUNNY     97  46  17 NW9       29.86F HX  93
ONTARIO        MOSUNNY   96  43  16 W10       29.84F HX  92
*PASADENA        N/A     93  59  31 E5          N/A  HX  92
POMONA         SUNNY     91  52  25 W9        29.86F
RIVERSIDE      SUNNY     97  49  19 W10       29.82F HX  94
SAN BERNARDINO SUNNY     99  39  12 W9        29.84  HAZE    HX  94
*SAN RAFAEL HI   N/A     91  50  24 SE7         N/A
*SAUGUS          N/A     90  42  19 S13         N/A
*WHITEMAN AP   SUNNY     90  54  29 SE12      29.88F
*WHITTIER HILL   N/A     92  58  31 SW7         N/A  HX  91

$$

CAZ054-055-192200-
LA AND SAN BERNARDINO COUNTY MOUNTAINS


CITY           SKY/WX    TMP DP  RH WIND       PRES   REMARKS
*ACTON           N/A     93  26   9 S10         N/A
*BIG BEAR AIRP CLEAR     73  36  25 SW6       30.22F
*BIG PINES       N/A     73  41  31 W3          N/A
*CHILAO          N/A     81  36  20 S13         N/A
SANDBERG       NOT AVBL
*WARM SPRINGS    N/A     87  37  16 SE6         N/A

$$

CAZ028-029-059-060-099-192200-
ANTELOPE VALLEY AND SURROUNDING AREAS


CITY           SKY/WX    TMP DP  RH WIND       PRES   REMARKS
LANCASTER      SUNNY     94  22   7 SW20      29.90F
PALMDALE       SUNNY     94  21   7 SW18      29.90F
*POPPY PARK      N/A     91  33  13 SW12G26     N/A

CITY           SKY/WX    TMP DP  RH WIND       PRES   REMARKS
29 PALMS       SUNNY    100  34  10 MISG      29.89F HX  94
BARSTOW/DAGGET SUNNY     97  47  18 NE10G17   29.84F HX  93
BISHOP         SUNNY     87  28  12 VRB6      29.97F
CHINA LAKE       N/A    N/A N/A N/A MISG      29.86
MOJAVE         SUNNY     91  25   9 SW14G21   29.93F
NEEDLES        SUNNY    106  33   8 S13G25    29.76F HX  99
VICTORVILLE    SUNNY    N/A N/A N/A S9        29.92F

$$

CAZ039-040-192200-
VENTURA AND SANTA BARBARA COUNTY COAST


CITY           SKY/WX    TMP DP  RH WIND       PRES   REMARKS
CAMARILLO      SUNNY     79  55  43 W12       29.84F
NWS OXNARD       N/A     76  54  46 S9        29.83F
OXNARD AIRPORT SUNNY     70  60  70 W13       29.84F
*POINT MUGU    SUNNY     73  57  56 W13       29.85F
SBA APT/GOLETA NOT AVBL
*SANTA BARBARA   N/A     79  59  49 CALM      29.91F
*VENTURA         N/A     70  59  68 SW8G14      N/A

$$

CAZ044-045-192200-
VENTURA COUNTY VALLEYS


CITY           SKY/WX    TMP DP  RH WIND       PRES   REMARKS
*SIMI VALLEY     N/A     89  60  37 SW3       29.76S
*TO CIVIC ARTS   N/A     90  57  33 S3          N/A
*WESTLAKE VILL   N/A     91  60  34 CALM      29.82F HX  91
*OJAI            N/A     92  56  29 W3        29.75S HX  90
*FILLMORE        N/A     92  62  37 SW3       29.84F HX  92

$$

CAZ053-192200-
VENTURA COUNTY MOUNTAINS


CITY           SKY/WX    TMP DP  RH WIND       PRES   REMARKS
*LOCKWOOD VLY    N/A     84  34  16 NW6G12      N/A
*FRAZIER MTN     N/A     66  41  40 SW1       29.84F
*ROSE VALLEY     N/A     81  43  26 MISG        N/A

$$

CAZ034-035-036-192200-
CENTRAL COAST AND SANTA YNEZ VALLEY


CITY           SKY/WX    TMP DP  RH WIND       PRES   REMARKS
SAN LUIS OBISP SUNNY     81  54  39 NW22G30   29.87F
SANTA MARIA    SUNNY     75  55  49 NW18G25   29.88F

CITY           SKY/WX    TMP DP  RH WIND       PRES   REMARKS
*LOMPOC        SUNNY     72  58  61 W17G23    29.89F
*PISMO BEACH     N/A     72  51  48 NW6       29.85S
*SANTA YNEZ    FAIR      82  55  39 SW12      29.87F

$$

CAZ037-038-051-192200-
SAN LUIS OBISPO COUNTY INTERIOR AND CUYAMA VALLEY


CITY           SKY/WX    TMP DP  RH WIND       PRES   REMARKS
*CUYAMA          N/A     76  50  40 NE13      29.82F
PASO ROBLES    SUNNY     84  52  33 NW3       29.91F

$$

CAZ032-033-061-192200-
SOUTHERN DESERTS


CITY           SKY/WX    TMP DP  RH WIND       PRES   REMARKS
BLYTHE         MOSUNNY  106  46  13 S14       29.74F HX 102
IMPERIAL       PTSUNNY  104  51  17 E7        29.71F HX 101
PALM SPRINGS   SUNNY    104  49  15 SE9       29.75F HX 101
THERMAL        NOT AVBL

$$

ELSEWHERE ACROSS THE WESTERN UNITED STATES AND MEXICO


CITY           SKY/WX    TMP DP  RH WIND       PRES   REMARKS
DENVER, CO     PTSUNNY   85  25  11 CALM      30.01F
GRAND CANYON,  PTSUNNY   79  35  20 S12G24    30.21F
HONOLULU, HI   PTSUNNY   86  65  49 E17G23    30.07F
KAHULUI, MAUI  FAIR      89  69  51 NE26      30.04F HX  93
LAKE TAHOE, CA SUNNY     69  33  26 N9        30.15F
LAS VEGAS, NV  MOSUNNY   97  42  15 SW12G24   29.83F HX  93
MAMMOTH LAKES, FAIR      73  18  12 SE9       30.18F
MEXICO CITY, M LGT RAIN  63  54  72 N7        30.28F
PHOENIX, AZ    SUNNY    102  44  14 E8        29.81F HX  98
PORTLAND, OR   PTSUNNY   69  56  62 VRB3      30.10S
RENO, NV       MOSUNNY   74  33  22 NW5       30.09F
SALT LAKE CITY PTSUNNY   69  48  47 SE7       30.04F
SAN DIEGO, CA  SUNNY     80  64  58 W12       29.85F
SAN FRANCISCO, MOSUNNY   73  60  63 VRB3      29.95F
SAN JOSE, CA   PTSUNNY   77  55  46 VRB7      29.95F
SEATTLE, WA    CLOUDY    70  57  63 SW13      30.06S
TIJUANA, MEX   SUNNY     82  61  47 NW13      29.87F

$$

STATION/POSITION TIME  TEMP    WIND        PRES    VSBY  WAVE
                       AIR SEA DIR/SP/G                  HT/PER
                 (UTC) (F)     (DEG/KT/KT) (MB)    (MI)  (FT/S)
WEST SANTA BARBA 2050          300/ 21/ 27 1011.4F         6/ 7
EAST SANTA BARBA 2040   64 64  270/ 10/ 12 1011.3F
SANTA MONICA BAY 2040   66 71  250/  2/  4 1010.9F
SAN CLEMENTE BAS 2040   69                 1011.2F

 

View Past Reports for Sacramento, CA.

Products Courtesy of NOAA-NWS
NWS Information Parsing Script by Ken True at Saratoga Weather - Script by SE Lincoln Weather.

powered by Cumulus v1.9.3 (1059)
Ambient Weather VWS v14.00
Top Website Map Copyright © 2007 - 2020 Foresthillweather.com Never base important decisions on this or any weather information obtained from the Internet